RYR6566 LEPA-LEAL

Flight info

Callsign RYR6566
Flight time 0h 40m
Altitude 23000
Route BAVER M603 GERVU
Aircraft A320/M-SDE3FGHIRWY/LB1

Departure

Time 2026-05-06 11:20
Airport Palma de Mallorca Airport (LEPA)

Arrival

Time 2026-05-06 12:00
Airport Alicante-Elche Miguel Hernández Airport (LEAL)
Time Latitude Longitude Altitude Speed Heading
2026-05-06 11:02 39.55047 2.73541 30 ft 0 kts 163°
2026-05-06 11:11 39.55051 2.73539 30 ft 2 kts 163°
2026-05-06 11:11 39.55068 2.73531 30 ft 3 kts 150°
2026-05-06 11:11 39.55084 2.73517 30 ft 3 kts 118°
2026-05-06 11:12 39.55088 2.73499 30 ft 2 kts 63°
2026-05-06 11:12 39.55087 2.73495 30 ft 0 kts 58°
2026-05-06 11:14 39.55099 2.73520 30 ft 7 kts 58°
2026-05-06 11:14 39.55130 2.73586 30 ft 11 kts 58°
2026-05-06 11:14 39.55187 2.73627 30 ft 10 kts 324°
2026-05-06 11:14 39.55254 2.73577 30 ft 13 kts 330°
2026-05-06 11:15 39.55338 2.73514 30 ft 15 kts 328°
2026-05-06 11:15 39.55419 2.73451 30 ft 11 kts 339°
2026-05-06 11:15 39.55477 2.73512 30 ft 13 kts 60°
2026-05-06 11:15 39.55533 2.73571 30 ft 10 kts 346°
2026-05-06 11:16 39.55603 2.73517 30 ft 13 kts 328°
2026-05-06 11:16 39.55681 2.73551 30 ft 15 kts 58°
2026-05-06 11:16 39.55737 2.73673 30 ft 17 kts 59°
2026-05-06 11:16 39.55803 2.73812 30 ft 19 kts 58°
2026-05-06 11:17 39.55878 2.73969 30 ft 22 kts 58°
2026-05-06 11:17 39.55960 2.74146 30 ft 24 kts 59°
2026-05-06 11:17 39.56045 2.74257 30 ft 17 kts 32°
2026-05-06 11:17 39.56145 2.74347 30 ft 13 kts 34°
2026-05-06 11:18 39.56216 2.74362 30 ft 12 kts 334°
2026-05-06 11:18 39.56228 2.74260 30 ft 14 kts 241°
2026-05-06 11:18 39.56207 2.74218 30 ft 1 kts 240°
2026-05-06 11:19 39.56176 2.74149 30 ft 37 kts 239°
2026-05-06 11:19 39.55908 2.73587 30 ft 105 kts 238°
2026-05-06 11:19 39.55429 2.72578 35 ft 155 kts 238°
2026-05-06 11:19 39.54854 2.71360 573 ft 160 kts 238°
2026-05-06 11:20 39.54252 2.70111 1250 ft 167 kts 235°
2026-05-06 11:20 39.53601 2.68827 1877 ft 178 kts 236°
2026-05-06 11:20 39.52880 2.67418 2224 ft 200 kts 236°
2026-05-06 11:20 39.52090 2.65867 2863 ft 210 kts 236°
2026-05-06 11:21 39.51373 2.64114 3398 ft 233 kts 245°
2026-05-06 11:21 39.50715 2.62084 3941 ft 254 kts 247°
2026-05-06 11:21 39.50075 2.59990 4791 ft 261 kts 248°
2026-05-06 11:21 39.49408 2.57782 5734 ft 264 kts 248°
2026-05-06 11:22 39.48733 2.55557 6686 ft 267 kts 248°
2026-05-06 11:22 39.48046 2.53312 7613 ft 270 kts 248°
2026-05-06 11:22 39.47347 2.51041 8557 ft 272 kts 248°
2026-05-06 11:22 39.46641 2.48758 9555 ft 275 kts 248°
2026-05-06 11:23 39.45923 2.46445 10304 ft 283 kts 248°
2026-05-06 11:23 39.45157 2.43988 10573 ft 306 kts 248°
2026-05-06 11:23 39.44619 2.42266 10836 ft 316 kts 248°
2026-05-06 11:23 39.43500 2.38696 11784 ft 322 kts 248°
2026-05-06 11:24 39.42942 2.36915 12309 ft 324 kts 248°
2026-05-06 11:24 39.42095 2.34205 13123 ft 326 kts 248°
2026-05-06 11:24 39.41245 2.31487 13906 ft 327 kts 248°
2026-05-06 11:24 39.40377 2.28711 14626 ft 329 kts 248°
2026-05-06 11:25 39.39529 2.25995 15320 ft 331 kts 248°
2026-05-06 11:25 39.38665 2.23230 15990 ft 333 kts 248°
2026-05-06 11:25 39.37790 2.20445 16669 ft 335 kts 247°
2026-05-06 11:25 39.36908 2.17646 17354 ft 338 kts 247°
2026-05-06 11:26 39.36019 2.14826 18045 ft 340 kts 247°
2026-05-06 11:26 39.35110 2.11949 18685 ft 342 kts 247°
2026-05-06 11:26 39.34220 2.09131 19308 ft 345 kts 247°
2026-05-06 11:26 39.33302 2.06220 19961 ft 347 kts 247°
2026-05-06 11:27 39.32388 2.03331 20605 ft 349 kts 247°
2026-05-06 11:27 39.31479 2.00463 21228 ft 351 kts 247°
2026-05-06 11:27 39.30541 1.97502 21842 ft 353 kts 247°
2026-05-06 11:27 39.29611 1.94562 22441 ft 355 kts 247°
2026-05-06 11:28 39.28673 1.91605 23028 ft 357 kts 247°
2026-05-06 11:28 39.27728 1.88628 23597 ft 359 kts 247°
2026-05-06 11:28 39.26775 1.85635 24053 ft 362 kts 247°
2026-05-06 11:28 39.25827 1.82667 24518 ft 363 kts 247°
2026-05-06 11:29 39.24849 1.79606 24858 ft 365 kts 247°
2026-05-06 11:29 39.23884 1.76577 24943 ft 365 kts 247°
2026-05-06 11:29 39.22920 1.73552 24956 ft 365 kts 247°
2026-05-06 11:29 39.21956 1.70534 24954 ft 364 kts 247°
2026-05-06 11:30 39.20989 1.67509 24955 ft 364 kts 247°
2026-05-06 11:30 39.20022 1.64492 24957 ft 365 kts 247°
2026-05-06 11:30 39.19050 1.61468 24951 ft 365 kts 247°
2026-05-06 11:30 39.18081 1.58451 24949 ft 365 kts 247°
2026-05-06 11:31 39.17109 1.55426 24949 ft 365 kts 247°
2026-05-06 11:31 39.16139 1.52410 24954 ft 365 kts 246°
2026-05-06 11:31 39.15165 1.49391 24953 ft 365 kts 246°
2026-05-06 11:31 39.14190 1.46372 24951 ft 365 kts 246°
2026-05-06 11:32 39.13214 1.43356 24949 ft 365 kts 246°
2026-05-06 11:32 39.12239 1.40341 24951 ft 365 kts 247°
2026-05-06 11:32 39.11264 1.37323 24949 ft 365 kts 247°
2026-05-06 11:32 39.10287 1.34300 24948 ft 365 kts 247°
2026-05-06 11:33 39.09313 1.31283 24948 ft 365 kts 246°
2026-05-06 11:33 39.08337 1.28266 24952 ft 365 kts 246°
2026-05-06 11:33 39.07356 1.25252 24953 ft 365 kts 246°
2026-05-06 11:33 39.06373 1.22237 24950 ft 365 kts 246°
2026-05-06 11:34 39.05388 1.19222 24952 ft 365 kts 246°
2026-05-06 11:34 39.04405 1.16210 24958 ft 366 kts 246°
2026-05-06 11:34 39.03417 1.13191 24954 ft 366 kts 246°
2026-05-06 11:34 39.02430 1.10182 24955 ft 366 kts 246°
2026-05-06 11:35 39.01440 1.07168 24959 ft 366 kts 246°
2026-05-06 11:35 39.00451 1.04154 24964 ft 366 kts 246°
2026-05-06 11:35 38.99461 1.01139 24963 ft 366 kts 246°
2026-05-06 11:35 38.98471 0.98123 24967 ft 366 kts 246°
2026-05-06 11:36 38.97483 0.95109 24971 ft 366 kts 246°
2026-05-06 11:36 38.96494 0.92094 24974 ft 366 kts 246°
2026-05-06 11:36 38.95504 0.89081 24970 ft 366 kts 246°
2026-05-06 11:36 38.94512 0.86064 24972 ft 366 kts 246°
2026-05-06 11:37 38.93520 0.83050 24972 ft 366 kts 246°
2026-05-06 11:37 38.92527 0.80038 24971 ft 366 kts 246°
2026-05-06 11:37 38.91530 0.77025 24969 ft 367 kts 246°
2026-05-06 11:37 38.90532 0.74018 24971 ft 367 kts 246°
2026-05-06 11:38 38.89531 0.71003 24970 ft 367 kts 246°
2026-05-06 11:38 38.88536 0.68002 24966 ft 361 kts 246°
2026-05-06 11:38 38.87571 0.65088 24749 ft 351 kts 246°
2026-05-06 11:38 38.86623 0.62224 24383 ft 347 kts 248°
2026-05-06 11:39 38.85880 0.59295 24109 ft 345 kts 252°
2026-05-06 11:39 38.85213 0.56332 23884 ft 346 kts 253°
2026-05-06 11:39 38.84562 0.53361 23655 ft 346 kts 253°
2026-05-06 11:39 38.83916 0.50393 23402 ft 345 kts 253°
2026-05-06 11:40 38.83270 0.47430 23128 ft 344 kts 253°
2026-05-06 11:40 38.82625 0.44477 22858 ft 343 kts 253°
2026-05-06 11:40 38.81980 0.41535 22584 ft 342 kts 253°
2026-05-06 11:40 38.81334 0.38605 22323 ft 341 kts 253°
2026-05-06 11:41 38.80685 0.35681 22059 ft 340 kts 253°
2026-05-06 11:41 38.80037 0.32768 21800 ft 339 kts 253°
2026-05-06 11:41 38.79391 0.29861 21536 ft 339 kts 253°
2026-05-06 11:41 38.78746 0.26962 21284 ft 338 kts 253°
2026-05-06 11:42 38.78100 0.24072 21028 ft 337 kts 253°
2026-05-06 11:42 38.77452 0.21186 20776 ft 336 kts 253°
2026-05-06 11:42 38.76808 0.18313 20526 ft 335 kts 253°
2026-05-06 11:42 38.76165 0.15442 20278 ft 335 kts 253°
2026-05-06 11:43 38.75526 0.12581 20030 ft 334 kts 253°
2026-05-06 11:43 38.74887 0.09720 19778 ft 334 kts 253°
2026-05-06 11:43 38.74249 0.06868 19543 ft 333 kts 253°
2026-05-06 11:44 38.72971 0.01186 19065 ft 331 kts 253°
2026-05-06 11:44 38.72331 -0.01650 18848 ft 333 kts 253°
2026-05-06 11:44 38.71686 -0.04515 18612 ft 334 kts 253°
2026-05-06 11:44 38.71046 -0.07350 18228 ft 330 kts 253°
2026-05-06 11:45 38.70409 -0.10162 17750 ft 328 kts 253°
2026-05-06 11:45 38.69775 -0.12953 17303 ft 325 kts 253°
2026-05-06 11:45 38.69148 -0.15716 16859 ft 321 kts 253°
2026-05-06 11:45 38.68527 -0.18454 16442 ft 319 kts 253°
2026-05-06 11:46 38.67910 -0.21176 15981 ft 318 kts 253°
2026-05-06 11:46 38.67297 -0.23883 15549 ft 316 kts 254°
2026-05-06 11:46 38.66688 -0.26573 15121 ft 314 kts 254°
2026-05-06 11:46 38.66082 -0.29249 14681 ft 312 kts 254°
2026-05-06 11:47 38.65476 -0.31911 14247 ft 311 kts 254°
2026-05-06 11:47 38.64869 -0.34568 13817 ft 311 kts 254°
2026-05-06 11:47 38.64260 -0.37218 13351 ft 310 kts 254°
2026-05-06 11:47 38.63654 -0.39848 12916 ft 307 kts 254°
2026-05-06 11:48 38.63051 -0.42464 12473 ft 305 kts 253°
2026-05-06 11:48 38.62451 -0.45058 12056 ft 304 kts 253°
2026-05-06 11:48 38.61854 -0.47646 11631 ft 303 kts 254°
2026-05-06 11:48 38.61261 -0.50222 11216 ft 301 kts 253°
2026-05-06 11:49 38.60670 -0.52787 10796 ft 301 kts 253°
2026-05-06 11:49 38.60080 -0.55350 10370 ft 301 kts 253°
2026-05-06 11:49 38.59496 -0.57881 10204 ft 292 kts 253°
2026-05-06 11:49 38.58930 -0.60325 10038 ft 283 kts 253°
2026-05-06 11:50 38.58180 -0.62593 9944 ft 273 kts 237°
2026-05-06 11:50 38.57186 -0.64381 9886 ft 262 kts 234°
2026-05-06 11:50 38.56137 -0.66229 9819 ft 253 kts 234°
2026-05-06 11:50 38.55095 -0.68055 9761 ft 255 kts 235°
2026-05-06 11:51 38.54046 -0.69892 9695 ft 256 kts 234°
2026-05-06 11:51 38.52958 -0.71716 9644 ft 264 kts 227°
2026-05-06 11:51 38.51453 -0.72997 9393 ft 263 kts 202°
2026-05-06 11:51 38.49720 -0.73686 8971 ft 258 kts 198°
2026-05-06 11:52 38.48042 -0.74388 8557 ft 250 kts 201°
2026-05-06 11:52 38.46420 -0.75123 8146 ft 245 kts 201°
2026-05-06 11:52 38.44819 -0.75856 7643 ft 244 kts 201°
2026-05-06 11:52 38.43258 -0.76677 7139 ft 242 kts 214°
2026-05-06 11:53 38.42116 -0.78198 6689 ft 237 kts 237°
2026-05-06 11:53 38.41227 -0.79953 6314 ft 233 kts 233°
2026-05-06 11:53 38.40255 -0.81563 5950 ft 226 kts 231°
2026-05-06 11:53 38.39118 -0.82870 5591 ft 219 kts 204°
2026-05-06 11:54 38.37663 -0.83168 5271 ft 211 kts 171°
2026-05-06 11:54 38.36264 -0.82698 4892 ft 206 kts 161°
2026-05-06 11:54 38.34905 -0.82111 4368 ft 206 kts 160°
2026-05-06 11:54 38.33554 -0.81507 3904 ft 204 kts 156°
2026-05-06 11:55 38.32431 -0.80581 3688 ft 181 kts 135°
2026-05-06 11:55 38.31699 -0.79385 3510 ft 165 kts 118°
2026-05-06 11:55 38.31308 -0.78104 3346 ft 148 kts 104°
2026-05-06 11:55 38.31130 -0.76864 3157 ft 139 kts 101°
2026-05-06 11:56 38.30965 -0.75666 2991 ft 136 kts 101°
2026-05-06 11:56 38.30804 -0.74499 2805 ft 132 kts 100°
2026-05-06 11:56 38.30645 -0.73342 2637 ft 134 kts 100°
2026-05-06 11:56 38.30485 -0.72181 2465 ft 131 kts 99°
2026-05-06 11:57 38.30328 -0.71046 2284 ft 131 kts 101°
2026-05-06 11:57 38.30170 -0.69902 2109 ft 131 kts 99°
2026-05-06 11:57 38.30014 -0.68769 1919 ft 130 kts 100°
2026-05-06 11:57 38.29857 -0.67637 1761 ft 130 kts 99°
2026-05-06 11:58 38.29702 -0.66514 1577 ft 129 kts 99°
2026-05-06 11:58 38.29547 -0.65395 1408 ft 128 kts 99°
2026-05-06 11:58 38.29396 -0.64279 1203 ft 128 kts 99°
2026-05-06 11:58 38.29240 -0.63163 1041 ft 128 kts 98°
2026-05-06 11:59 38.29086 -0.62053 879 ft 127 kts 99°
2026-05-06 11:59 38.28934 -0.60951 708 ft 126 kts 98°
2026-05-06 11:59 38.28782 -0.59860 555 ft 125 kts 101°
2026-05-06 11:59 38.28628 -0.58771 369 ft 126 kts 100°
2026-05-06 12:00 38.28473 -0.57668 225 ft 127 kts 98°
2026-05-06 12:00 38.28328 -0.56610 123 ft 110 kts 99°
2026-05-06 12:00 38.28223 -0.55846 103 ft 63 kts 100°
2026-05-06 12:00 38.28170 -0.55473 94 ft 35 kts 100°
2026-05-06 12:01 38.28143 -0.55272 85 ft 35 kts 98°
2026-05-06 12:01 38.28132 -0.54959 75 ft 24 kts 78°
2026-05-06 12:01 38.28175 -0.54782 63 ft 12 kts 70°
2026-05-06 12:01 38.28198 -0.54721 64 ft 9 kts 43°
2026-05-06 12:02 38.28248 -0.54769 70 ft 11 kts 286°
2026-05-06 12:02 38.28263 -0.54863 74 ft 11 kts 280°
2026-05-06 12:02 38.28275 -0.54953 75 ft 10 kts 279°
2026-05-06 12:02 38.28286 -0.55038 82 ft 9 kts 279°
2026-05-06 12:03 38.28300 -0.55137 86 ft 14 kts 281°
2026-05-06 12:03 38.28344 -0.55208 88 ft 10 kts 359°
2026-05-06 12:03 38.28394 -0.55146 88 ft 12 kts 54°
2026-05-06 12:03 38.28422 -0.55044 91 ft 11 kts 95°
2026-05-06 12:04 38.28461 -0.54981 87 ft 12 kts 13°
2026-05-06 12:04 38.28553 -0.54961 89 ft 14 kts 10°
2026-05-06 12:04 38.28619 -0.54948 89 ft 4 kts 354°
2026-05-06 12:04 38.28637 -0.54973 88 ft 4 kts 301°
2026-05-06 12:05 38.28645 -0.55024 89 ft 3 kts 279°
2026-05-06 12:05 38.28647 -0.55039 87 ft 0 kts 280°